DLH205 MUHA-CYHZ

Flight info

Callsign DLH205
Flight time N/A
Altitude 37000
Route ALMIT2 TANIA DCT 2930N07500W DCT 3530N07000W DCT ELERI PEGGY5
Aircraft A388/J-SADE2E3FGHIJ3J4J5M1RWXY/LB1D1

Departure

Time 2026-05-04 21:19
Airport José Martí International Airport (MUHA)

Arrival

Time N/A
Airport Halifax / Stanfield International Airport (CYHZ)
Time Latitude Longitude Altitude Speed Heading
2026-05-04 21:01 22.99415 -82.40892 224 ft 0 kts 324°
2026-05-04 21:08 22.99410 -82.40889 224 ft 2 kts 322°
2026-05-04 21:08 22.99399 -82.40877 224 ft 2 kts 304°
2026-05-04 21:08 22.99392 -82.40863 224 ft 2 kts 288°
2026-05-04 21:09 22.99388 -82.40847 224 ft 2 kts 275°
2026-05-04 21:09 22.99387 -82.40830 224 ft 2 kts 261°
2026-05-04 21:09 22.99391 -82.40813 224 ft 2 kts 246°
2026-05-04 21:09 22.99396 -82.40801 224 ft 1 kts 235°
2026-05-04 21:10 22.99399 -82.40795 224 ft 0 kts 234°
2026-05-04 21:12 22.99397 -82.40799 224 ft 2 kts 234°
2026-05-04 21:12 22.99374 -82.40827 224 ft 7 kts 215°
2026-05-04 21:12 22.99318 -82.40821 224 ft 10 kts 152°
2026-05-04 21:13 22.99244 -82.40788 224 ft 12 kts 182°
2026-05-04 21:13 22.99173 -82.40839 224 ft 13 kts 231°
2026-05-04 21:13 22.99116 -82.40926 224 ft 15 kts 234°
2026-05-04 21:13 22.99051 -82.41023 224 ft 17 kts 234°
2026-05-04 21:14 22.98978 -82.41132 224 ft 19 kts 234°
2026-05-04 21:14 22.98900 -82.41251 224 ft 20 kts 234°
2026-05-04 21:14 22.98815 -82.41380 224 ft 22 kts 234°
2026-05-04 21:14 22.98722 -82.41519 224 ft 23 kts 234°
2026-05-04 21:15 22.98629 -82.41659 224 ft 23 kts 234°
2026-05-04 21:15 22.98536 -82.41799 224 ft 23 kts 234°
2026-05-04 21:15 22.98444 -82.41939 224 ft 23 kts 234°
2026-05-04 21:15 22.98351 -82.42079 224 ft 23 kts 234°
2026-05-04 21:16 22.98259 -82.42218 224 ft 23 kts 234°
2026-05-04 21:16 22.98168 -82.42357 224 ft 23 kts 234°
2026-05-04 21:16 22.98080 -82.42487 224 ft 17 kts 234°
2026-05-04 21:16 22.97994 -82.42559 224 ft 15 kts 188°
2026-05-04 21:17 22.97908 -82.42514 224 ft 13 kts 127°
2026-05-04 21:17 22.97903 -82.42439 224 ft 8 kts 69°
2026-05-04 21:17 22.97920 -82.42409 224 ft 2 kts 54°
2026-05-04 21:17 22.97922 -82.42406 224 ft 0 kts 54°
2026-05-04 21:18 22.97952 -82.42361 224 ft 30 kts 55°
2026-05-04 21:18 22.98203 -82.41980 224 ft 95 kts 54°
2026-05-04 21:18 22.98718 -82.41203 224 ft 159 kts 54°
2026-05-04 21:18 22.99455 -82.40082 542 ft 198 kts 56°
2026-05-04 21:19 23.00269 -82.38807 1244 ft 219 kts 56°
2026-05-04 21:19 23.01163 -82.37420 1932 ft 230 kts 55°
2026-05-04 21:19 23.02093 -82.36004 2565 ft 234 kts 54°
2026-05-04 21:19 23.03051 -82.34584 3192 ft 237 kts 54°
2026-05-04 21:20 23.04027 -82.33120 3743 ft 253 kts 54°
2026-05-04 21:20 23.05082 -82.31533 4646 ft 272 kts 54°
2026-05-04 21:20 23.06202 -82.29849 5554 ft 284 kts 54°
2026-05-04 21:20 23.07356 -82.28111 6433 ft 290 kts 53°
2026-05-04 21:21 23.08541 -82.26336 7317 ft 293 kts 53°
2026-05-04 21:21 23.09736 -82.24542 8092 ft 298 kts 53°
2026-05-04 21:21 23.10948 -82.22719 8843 ft 306 kts 54°
2026-05-04 21:21 23.12226 -82.20796 9649 ft 328 kts 53°
2026-05-04 21:22 23.13587 -82.18726 10452 ft 352 kts 56°
2026-05-04 21:22 23.14774 -82.16320 11256 ft 377 kts 63°
2026-05-04 21:22 23.15846 -82.13637 12062 ft 404 kts 68°
2026-05-04 21:22 23.16837 -82.10670 12868 ft 427 kts 69°
2026-05-04 21:23 23.17894 -82.07627 13632 ft 437 kts 68°
2026-05-04 21:23 23.18956 -82.04532 14384 ft 444 kts 68°
2026-05-04 21:23 23.20039 -82.01387 15137 ft 450 kts 68°
2026-05-04 21:23 23.21133 -81.98204 15887 ft 456 kts 68°
2026-05-04 21:24 23.22242 -81.94975 16639 ft 462 kts 69°
2026-05-04 21:24 23.23367 -81.91695 17393 ft 468 kts 69°
2026-05-04 21:24 23.24513 -81.88357 18151 ft 474 kts 69°
2026-05-04 21:24 23.25660 -81.85002 18904 ft 479 kts 68°
2026-05-04 21:25 23.26820 -81.81610 19559 ft 484 kts 68°
2026-05-04 21:25 23.27994 -81.78180 20188 ft 489 kts 68°
2026-05-04 21:25 23.29176 -81.74722 20819 ft 492 kts 68°
2026-05-04 21:25 23.30367 -81.71236 21449 ft 496 kts 68°
2026-05-04 21:26 23.31567 -81.67718 22081 ft 500 kts 67°
2026-05-04 21:26 23.32785 -81.64149 22718 ft 505 kts 67°
2026-05-04 21:26 23.34002 -81.60575 23351 ft 509 kts 67°
2026-05-04 21:26 23.35230 -81.56970 23982 ft 513 kts 67°
2026-05-04 21:27 23.36469 -81.53331 24502 ft 518 kts 67°
2026-05-04 21:27 23.37719 -81.49656 25012 ft 523 kts 67°
2026-05-04 21:27 23.38977 -81.45950 25524 ft 526 kts 67°
2026-05-04 21:27 23.40246 -81.42209 26037 ft 530 kts 67°
2026-05-04 21:28 23.41529 -81.38421 26553 ft 534 kts 67°
2026-05-04 21:28 23.42818 -81.34617 27061 ft 547 kts 68°
2026-05-04 21:28 23.44145 -81.30700 27533 ft 559 kts 68°
2026-05-04 21:28 23.45485 -81.26728 27981 ft 566 kts 68°
2026-05-04 21:29 23.46852 -81.22680 28331 ft 576 kts 68°
2026-05-04 21:29 23.48230 -81.18594 28656 ft 578 kts 68°
2026-05-04 21:29 23.49608 -81.14502 28975 ft 578 kts 68°
2026-05-04 21:29 23.50994 -81.10382 29294 ft 578 kts 68°
2026-05-04 21:30 23.52372 -81.06289 29613 ft 577 kts 68°
2026-05-04 21:30 23.53744 -81.02204 29931 ft 577 kts 68°
2026-05-04 21:30 23.55115 -80.98116 30250 ft 577 kts 68°
2026-05-04 21:30 23.56486 -80.94033 30569 ft 577 kts 68°
2026-05-04 21:31 23.59247 -80.85789 31102 ft 585 kts 68°
2026-05-04 21:31 23.60644 -80.81607 31356 ft 586 kts 68°
2026-05-04 21:31 23.62033 -80.77451 31607 ft 586 kts 68°
2026-05-04 21:32 23.63419 -80.73295 31857 ft 586 kts 68°
2026-05-04 21:32 23.64805 -80.69135 32110 ft 586 kts 68°
2026-05-04 21:32 23.66188 -80.64982 32362 ft 586 kts 68°
2026-05-04 21:32 23.67569 -80.60830 32616 ft 585 kts 68°
2026-05-04 21:33 23.68949 -80.56676 32870 ft 585 kts 68°
2026-05-04 21:33 23.70337 -80.52497 33128 ft 585 kts 68°
2026-05-04 21:33 23.71713 -80.48346 33384 ft 584 kts 68°
2026-05-04 21:33 23.73089 -80.44195 33642 ft 584 kts 68°
2026-05-04 21:34 23.74461 -80.40047 33900 ft 584 kts 68°
2026-05-04 21:34 23.75831 -80.35902 34159 ft 584 kts 68°
2026-05-04 21:34 23.77203 -80.31748 34402 ft 585 kts 69°
2026-05-04 21:34 23.78575 -80.27592 34640 ft 585 kts 69°
2026-05-04 21:35 23.79956 -80.23401 34882 ft 586 kts 69°
2026-05-04 21:35 23.81328 -80.19232 35122 ft 586 kts 69°
2026-05-04 21:35 23.82698 -80.15065 35363 ft 587 kts 69°
2026-05-04 21:35 23.84072 -80.10889 35605 ft 588 kts 69°
2026-05-04 21:36 23.85444 -80.06707 35849 ft 588 kts 69°
2026-05-04 21:36 23.86816 -80.02520 36094 ft 589 kts 69°
2026-05-04 21:36 23.88188 -79.98331 36340 ft 589 kts 69°
2026-05-04 21:36 23.89572 -79.94103 36588 ft 590 kts 69°
2026-05-04 21:37 23.90949 -79.89895 36836 ft 592 kts 69°
2026-05-04 21:37 23.92326 -79.85675 37024 ft 595 kts 69°
2026-05-04 21:37 23.93709 -79.81433 37015 ft 597 kts 69°
2026-05-04 21:38 23.96493 -79.72886 37020 ft 601 kts 69°
2026-05-04 21:38 23.99284 -79.64296 37018 ft 600 kts 69°
2026-05-04 21:39 24.02527 -79.55996 37003 ft 592 kts 53°
2026-05-04 21:39 24.05145 -79.52631 37018 ft 579 kts 36°
2026-05-04 21:39 24.08297 -79.49977 37052 ft 573 kts 28°
2026-05-04 21:40 24.15060 -79.45542 37021 ft 570 kts 24°
2026-05-04 21:40 24.21890 -79.41150 37018 ft 571 kts 24°
2026-05-04 21:41 24.28702 -79.36763 37020 ft 571 kts 24°
2026-05-04 21:41 24.35511 -79.32373 37000 ft 570 kts 24°
2026-05-04 21:42 24.42329 -79.27972 37004 ft 570 kts 24°
2026-05-04 21:42 24.49126 -79.23580 37006 ft 571 kts 24°
2026-05-04 21:43 24.55931 -79.19175 37002 ft 571 kts 24°
2026-05-04 21:43 24.62737 -79.14765 37004 ft 571 kts 24°
2026-05-04 21:44 24.69564 -79.10336 37008 ft 571 kts 24°
2026-05-04 21:44 24.76376 -79.05911 37015 ft 572 kts 24°
2026-05-04 21:45 24.83192 -79.01477 37021 ft 573 kts 24°
2026-05-04 21:45 24.90031 -78.97023 37027 ft 573 kts 24°
2026-05-04 21:46 24.96846 -78.92579 37031 ft 573 kts 24°
2026-05-04 21:46 25.03662 -78.88128 37032 ft 573 kts 24°
2026-05-04 21:47 25.10480 -78.83671 37032 ft 574 kts 24°
2026-05-04 21:47 25.17331 -78.79184 37028 ft 574 kts 24°
2026-05-04 21:48 25.24157 -78.74709 37025 ft 574 kts 25°
2026-05-04 21:48 25.30981 -78.70230 37023 ft 574 kts 25°
2026-05-04 21:49 25.37833 -78.65728 37023 ft 575 kts 25°
2026-05-04 21:49 25.44668 -78.61226 37024 ft 576 kts 25°
2026-05-04 21:50 25.51510 -78.56718 37026 ft 576 kts 25°
2026-05-04 21:50 25.58354 -78.52201 37027 ft 576 kts 25°
2026-05-04 21:51 25.65232 -78.47656 37029 ft 577 kts 25°
2026-05-04 21:51 25.72083 -78.43122 37029 ft 577 kts 25°
2026-05-04 21:52 25.78938 -78.38580 37030 ft 577 kts 25°
2026-05-04 21:52 25.85815 -78.34017 37016 ft 578 kts 25°
2026-05-04 21:53 25.92678 -78.29457 37008 ft 579 kts 25°